Location: Marcé
(47.5801°N, 0.3280°W)
Time: 12:33:06
(UTC+01:00)

ISS - Visible Passes

Search period start: 29 November 2022 00:00
Search period end: 09 December 2022 00:00
Orbit: 411 x 420 km, 51.6° (Epoch: 29 November)

Date Brightness Start Highest point End Pass type
(mag) Time Alt. Az. Time Alt. Az. Time Alt. Az.
29 Nov -3.0 17:49:20 10° WNW 17:52:31 40° N 17:55:41 10° ENE visible
29 Nov -2.6 19:26:19 10° WNW 19:28:40 38° NW 19:28:40 38° NW visible
30 Nov -3.3 18:37:36 10° WNW 18:40:49 45° N 18:41:58 31° ENE visible
30 Nov -0.6 20:14:21 10° WNW 20:14:52 14° WNW 20:14:52 14° WNW visible
01 Dec -3.1 17:48:47 10° WNW 17:51:58 40° N 17:55:09 10° ENE visible
01 Dec -3.1 19:25:35 10° WNW 19:28:13 53° WNW 19:28:13 53° WNW visible
02 Dec -3.8 18:36:49 10° WNW 18:40:07 68° NNE 18:41:39 29° E visible
02 Dec -0.6 20:13:48 10° W 20:14:33 15° W 20:14:33 15° W visible
03 Dec -3.5 17:47:59 10° WNW 17:51:16 52° NNE 17:54:32 10° E visible
03 Dec -2.8 19:24:48 10° WNW 19:27:58 41° SW 19:28:06 41° SSW visible
04 Dec -3.4 18:35:54 10° WNW 18:39:12 64° SSW 18:41:48 15° SE visible
04 Dec -0.5 20:14:04 10° WSW 20:14:44 11° WSW 20:14:44 11° WSW visible
05 Dec -3.8 17:47:01 10° WNW 17:50:22 87° NNE 17:53:41 10° ESE visible
05 Dec -1.2 19:24:18 10° W 19:26:44 19° SW 19:28:41 12° S visible
06 Dec -1.8 18:35:04 10° W 18:38:00 29° SW 18:40:55 10° SSE visible
07 Dec -2.5 17:45:59 10° WNW 17:49:11 45° SSW 17:52:22 10° SE visible
08 Dec -0.5 18:34:51 10° WSW 18:36:30 13° SW 18:38:08 10° SSW visible
